Location: Cuiry
(49.3858°N, 3.7708°E)
Time: 00:37:12
(UTC+00:00)

SL-16 R/B - Pass Details

Date: 12 January 2026
Orbit: 842 x 846 km, 71.0° (Epoch: 9 February)

Event Time Altitude Azimuth Distance (km) Brightness Sun altitude
Rises 17:46:55 0° 227° (SW) 3,393 6.5 -15.2°
Reaches altitude 10° 17:49:28 10° 233° (SW) 2,461 5.7 -15.6°
Maximum altitude 17:54:53 47° 307° (NW) 1,116 3.1 -16.4°
Drops below altitude 10° 18:00:21 10° 20° (NNE) 2,472 4.3 -17.3°
Enters shadow 18:00:35 - 21° (NNE) 2,556 4.4 -17.3°
